Simultaneous Nadir Overpasses (SNOs) Predictions

Prediction of SNOs between LANDSAT-8 and METOP-B Satellite Orbit:

Table of predicted SNOs for the next 14.0 days since TLE Epoch: 2/2/2017
Index Date (LANDSAT-8) Time (LANDSAT-8) Lat,Lon (LANDSAT-8) SZA (LANDSAT-8 ) Date (METOP-B) Time (METOP-B) Lat,Lon (METOP-B) SZA (METOP-B ) Distance(km) Time Diff (sec)
1 02/04/2017 03:55:09 81.09, 160.37 98.84 02/04/2017 03:54:18 81.09, 160.34 98.82 0.62 51
2 02/04/2017 04:44:35 -81.11, -31.72 81.13 02/04/2017 04:44:57 -81.11, -31.64 81.12 1.29 22
3 02/06/2017 23:29:23 81.08,-133.36 97.96 02/06/2017 23:28:41 81.08,-133.28 97.95 1.49 42
4 02/07/2017 00:18:48 -81.12, 34.94 81.96 02/07/2017 00:19:19 -81.12, 35.11 81.94 2.86 31
5 02/09/2017 19:03:35 81.09, -66.77 97.08 02/09/2017 19:03:03 81.08, -66.91 97.06 2.47 32
6
